DECAYED

STARLINK-4603, 53625 (Decayed)

Orbit data source: Space-Track

STARLINK-4603, 53625 was a payload satellite owned by SpaceX/Seattle (US) in LEO that was launched on Sun, 28 Aug 2022 UTC via an FALCON 9 launch vehicle from the Air Force Eastern Test Range (AFETR). Payload-class satellites include a variety of spacecraft equipped with specific instruments for various scientific and technological missions. These include communications satellites like Starlink; space stations such as the ISS; scientific satellites like the Hubble; Earth observation satellites from companies like Planet Labs, Umbra, and HawkEye 360; GPS; miniature CubeSats for education and research; and military/defense satellites.

Not visible in the next 10 days
Identifier
53625, 2022-104AP
Orbit
Decayed
Last TLE update
6 months ago
Origin
Manufacturer
SpaceX/Seattle
Mission
Decayed Commercial Communications
Bus & Motor
STARLINK, Unknown motor
Mass
300 kg wet, ~290 kg dry
Launch date (UTC)
2022-08-28 (3 years ago)
Launch vehicle
FALCON 9
Launch site
Air Force Eastern Test Range (AFETR)
Object type
Payload
Rocket body
Debris
Shape & HBR
Box + 1 Pan, 8.86 m
Radar Cross Section
13.562 m², Large (>1 m²)

Expand to show TLE details & history

TLE from 6 months ago
0 STARLINK-4603
1 53625U 22104AP  24366.05033010  .13609611  12468-4  34867-3 0  9996
2 53625  53.1991 358.0811 0002962 148.8168 319.1098 16.45874372129901
Epoch: 2024-12-31T01:12Z
TLE epoch observation values (Epoch: 2024-12-31T01:12:28.52Z)
Latitude
49.79124°
Longitude
-1.63189°
Altitude
154.49 km
Speed
7.821 km/s
True Right ascension
07h 45m 48s
True Declination
49° 36' 21"
Sunlit
Object was in full shadow at epoch
Visualization orbit readout
Visualization observer readout
Orbital elements
Apogee altitude
152.418 km
Perigee altitude
148.551 km
Semi-major axis
6,528.622 km
Eccentricity
0.0003
Inclination
53.1991°
RAAN
358.0811°
Arg. of periapsis
148.8168°
True anomaly
Unknown
Mean anomaly
319.1098°
Eccentric anomaly
Unknown
Mean motion
4.11444 °/min
Orbital period
87.5 mins
BSTAR
0.00034867
Loading maneuver chart data...
Loading SW <> Apogee altitude chart data...
Loading historical data...
Loading historical data...
Loading historical data...
Loading historical data...
Loading historical data...
Loading historical data...
Loading historical data...

STARLINK-4603 Visibility

Observer location: undefined°, undefined°

This satellite is decayed
Span
Click to sort rows by Start time (UTC) header in descending order
Start Az.
Max El. time (UTC)
Max El. Az.
Max El.
End time (UTC)
End Az.
|